Time,TemperatureF,DewpointF,PressureIn,WindDirection,WindDirectionDegrees,WindSpeedMPH,WindSpeedGustMPH,Humidity,HourlyPrecipIn,Conditions,Clouds,dailyrainin,SoftwareType,DateUTC
2013-10-16 00:03:00,63.7,60.5,30.03,NE,45,0.0,0.0,89,0.00,,,0.00,WUHU216HW,2013-10-16 04:03:00,
2013-10-16 00:08:00,63.5,60.3,30.02,NE,45,0.0,0.0,89,0.00,,,0.00,WUHU216HW,2013-10-16 04:08:00,
2013-10-16 00:13:00,63.5,60.7,30.02,NE,45,0.0,0.0,90,0.00,,,0.00,WUHU216HW,2013-10-16 04:13:00,
2013-10-16 00:18:00,63.4,60.5,30.02,NE,45,0.0,0.0,90,0.00,,,0.00,WUHU216HW,2013-10-16 04:18:00,
2013-10-16 00:23:00,63.4,60.5,30.02,NE,45,0.0,0.0,90,0.00,,,0.00,WUHU216HW,2013-10-16 04:23:00,
2013-10-16 00:28:00,63.4,60.5,30.02,NE,45,0.0,0.0,90,0.00,,,0.00,WUHU216HW,2013-10-16 04:28:00,
2013-10-16 00:33:00,63.2,60.3,30.02,NE,45,0.0,0.0,90,0.00,,,0.00,WUHU216HW,2013-10-16 04:33:00,
2013-10-16 00:38:00,63.2,60.3,30.01,NE,45,0.0,0.0,90,0.00,,,0.00,WUHU216HW,2013-10-16 04:38:00,
2013-10-16 00:43:00,63.0,60.1,30.01,NE,45,0.0,0.0,90,0.00,,,0.00,WUHU216HW,2013-10-16 04:43:00,
2013-10-16 00:48:00,63.0,60.1,30.01,NE,45,0.0,0.0,90,0.00,,,0.00,WUHU216HW,2013-10-16 04:48:00,
2013-10-16 00:53:00,63.0,60.1,30.01,NE,45,0.0,0.0,90,0.00,,,0.00,WUHU216HW,2013-10-16 04:53:00,
2013-10-16 00:58:00,63.0,60.1,30.01,NE,45,0.0,0.0,90,0.00,,,0.00,WUHU216HW,2013-10-16 04:58:00,
2013-10-16 01:03:00,63.0,60.1,30.01,NE,45,0.0,0.0,90,0.00,,,0.00,WUHU216HW,2013-10-16 05:03:00,
2013-10-16 01:08:00,63.0,60.1,30.01,NE,45,0.0,0.0,90,0.00,,,0.00,WUHU216HW,2013-10-16 05:08:00,
2013-10-16 01:13:00,63.0,60.1,30.01,NE,45,0.0,0.0,90,0.00,,,0.00,WUHU216HW,2013-10-16 05:13:00,
2013-10-16 01:18:00,62.8,59.9,30.01,NE,45,0.0,0.0,90,0.00,,,0.00,WUHU216HW,2013-10-16 05:18:00,
2013-10-16 01:23:00,62.8,59.9,30.00,NE,45,0.0,0.0,90,0.00,,,0.00,WUHU216HW,2013-10-16 05:23:00,
2013-10-16 01:28:00,62.6,59.8,30.00,NE,45,0.0,0.0,90,0.00,,,0.00,WUHU216HW,2013-10-16 05:28:00,
2013-10-16 01:33:00,62.6,59.8,30.01,NE,45,0.0,0.0,90,0.00,,,0.00,WUHU216HW,2013-10-16 05:33:00,
2013-10-16 01:39:00,62.6,59.8,30.00,NE,45,0.0,0.0,90,0.00,,,0.00,WUHU216HW,2013-10-16 05:39:00,
2013-10-16 01:44:00,62.6,59.8,30.00,NE,45,0.0,0.0,90,0.00,,,0.00,WUHU216HW,2013-10-16 05:44:00,
2013-10-16 01:49:00,62.5,59.6,30.00,NE,45,0.0,0.0,90,0.00,,,0.00,WUHU216HW,2013-10-16 05:49:00,
2013-10-16 01:54:00,62.3,59.4,30.00,NE,45,0.0,0.0,90,0.00,,,0.00,WUHU216HW,2013-10-16 05:54:00,
2013-10-16 01:59:00,62.3,59.4,30.00,NE,45,0.0,0.0,90,0.00,,,0.00,WUHU216HW,2013-10-16 05:59:00,
2013-10-16 02:04:00,62.3,59.7,30.00,NE,45,0.0,0.0,91,0.00,,,0.00,WUHU216HW,2013-10-16 06:04:00,
2013-10-16 02:09:00,62.3,59.7,30.00,NE,45,0.0,0.0,91,0.00,,,0.00,WUHU216HW,2013-10-16 06:09:00,
2013-10-16 02:14:00,62.1,59.5,30.00,NNE,23,0.0,0.0,91,0.00,,,0.00,WUHU216HW,2013-10-16 06:14:00,
2013-10-16 02:19:00,61.9,59.3,30.00,NNE,23,0.0,0.0,91,0.00,,,0.00,WUHU216HW,2013-10-16 06:19:00,
2013-10-16 02:24:00,61.7,59.1,30.00,NNE,23,0.0,0.0,91,0.00,,,0.00,WUHU216HW,2013-10-16 06:24:00,
2013-10-16 02:29:00,61.7,59.1,30.00,NNE,23,0.0,0.0,91,0.00,,,0.00,WUHU216HW,2013-10-16 06:29:00,
2013-10-16 02:34:00,61.7,59.1,30.00,NNE,23,0.0,0.0,91,0.00,,,0.00,WUHU216HW,2013-10-16 06:34:00,
2013-10-16 02:39:00,61.7,59.1,30.00,NNE,23,0.0,0.0,91,0.00,,,0.00,WUHU216HW,2013-10-16 06:39:00,
2013-10-16 02:44:00,61.7,59.1,30.00,NNE,23,0.0,0.0,91,0.00,,,0.00,WUHU216HW,2013-10-16 06:44:00,
2013-10-16 02:49:00,61.6,59.0,30.00,NNE,23,0.0,0.0,91,0.00,,,0.00,WUHU216HW,2013-10-16 06:49:00,
2013-10-16 02:54:00,61.6,59.0,30.00,NNE,23,0.0,0.0,91,0.00,,,0.00,WUHU216HW,2013-10-16 06:54:00,
2013-10-16 02:59:00,61.6,59.0,30.00,NNE,23,0.0,0.0,91,0.00,,,0.00,WUHU216HW,2013-10-16 06:59:00,
2013-10-16 03:04:00,61.6,59.2,29.99,NNE,23,0.0,0.0,92,0.00,,,0.00,WUHU216HW,2013-10-16 07:04:00,
2013-10-16 03:09:00,61.6,59.2,29.99,NNE,23,0.0,0.0,92,0.00,,,0.00,WUHU216HW,2013-10-16 07:09:00,
2013-10-16 03:14:00,61.6,59.2,29.99,NNE,23,0.0,0.0,92,0.00,,,0.00,WUHU216HW,2013-10-16 07:14:00,
2013-10-16 03:19:00,61.6,59.2,29.99,NNE,23,0.7,0.9,92,0.00,,,0.00,WUHU216HW,2013-10-16 07:19:00,
2013-10-16 03:24:00,61.6,59.2,29.99,NNE,23,0.0,0.9,92,0.00,,,0.00,WUHU216HW,2013-10-16 07:24:00,
2013-10-16 03:29:00,61.6,59.2,29.99,NNE,23,0.4,0.4,92,0.00,,,0.00,WUHU216HW,2013-10-16 07:29:00,
2013-10-16 03:34:00,61.6,59.2,29.99,NNE,23,0.0,0.7,92,0.00,,,0.00,WUHU216HW,2013-10-16 07:34:00,
2013-10-16 03:39:00,61.6,59.2,29.99,NNE,23,0.0,0.7,92,0.00,,,0.00,WUHU216HW,2013-10-16 07:39:00,
2013-10-16 03:44:00,61.6,59.2,29.99,NNE,23,0.0,0.0,92,0.00,,,0.00,WUHU216HW,2013-10-16 07:44:00,
2013-10-16 03:49:00,61.6,59.2,29.99,WNW,293,0.0,0.9,92,0.00,,,0.00,WUHU216HW,2013-10-16 07:49:00,
2013-10-16 03:54:00,61.6,59.2,29.99,WNW,293,0.0,0.9,92,0.00,,,0.00,WUHU216HW,2013-10-16 07:54:00,
2013-10-16 03:59:00,61.6,59.2,29.98,WNW,293,0.0,0.0,92,0.00,,,0.00,WUHU216HW,2013-10-16 07:59:00,
2013-10-16 04:04:00,61.4,59.0,29.98,WNW,293,0.0,0.0,92,0.00,,,0.00,WUHU216HW,2013-10-16 08:04:00,
2013-10-16 04:09:00,61.4,59.0,29.98,WNW,293,0.0,0.0,92,0.00,,,0.00,WUHU216HW,2013-10-16 08:09:00,
2013-10-16 04:14:00,61.4,59.0,29.98,NW,315,0.4,0.4,92,0.00,,,0.00,WUHU216HW,2013-10-16 08:14:00,
2013-10-16 04:19:00,61.4,59.0,29.98,NW,315,0.0,0.4,92,0.00,,,0.00,WUHU216HW,2013-10-16 08:19:00,
2013-10-16 04:24:00,61.4,59.0,29.98,NW,315,0.0,0.2,92,0.00,,,0.00,WUHU216HW,2013-10-16 08:24:00,
2013-10-16 04:29:00,61.4,59.0,29.98,NW,315,0.0,0.0,92,0.00,,,0.00,WUHU216HW,2013-10-16 08:29:00,
2013-10-16 04:34:00,61.4,59.4,29.98,NW,315,0.0,0.0,93,0.00,,,0.00,WUHU216HW,2013-10-16 08:34:00,
2013-10-16 04:39:00,61.4,59.4,29.98,NW,315,0.0,0.0,93,0.00,,,0.00,WUHU216HW,2013-10-16 08:39:00,
2013-10-16 04:44:00,61.4,59.0,29.98,NW,315,0.0,0.0,92,0.00,,,0.00,WUHU216HW,2013-10-16 08:44:00,
2013-10-16 04:49:00,61.4,59.0,29.98,NW,315,0.4,0.4,92,0.00,,,0.00,WUHU216HW,2013-10-16 08:49:00,
2013-10-16 04:54:00,61.2,58.9,29.97,NW,315,0.0,0.4,92,0.00,,,0.00,WUHU216HW,2013-10-16 08:54:00,
2013-10-16 04:59:00,61.2,58.9,29.97,NW,315,0.0,0.0,92,0.00,,,0.00,WUHU216HW,2013-10-16 08:59:00,
2013-10-16 05:04:00,61.0,58.7,29.97,NW,315,0.0,0.0,92,0.00,,,0.00,WUHU216HW,2013-10-16 09:04:00,
2013-10-16 05:09:00,60.8,58.5,29.97,NW,315,0.0,0.0,92,0.00,,,0.00,WUHU216HW,2013-10-16 09:09:00,
2013-10-16 05:14:00,60.8,58.5,29.97,NW,315,0.0,0.0,92,0.00,,,0.00,WUHU216HW,2013-10-16 09:14:00,
2013-10-16 05:19:00,60.8,58.5,29.98,NW,315,0.0,0.0,92,0.00,,,0.00,WUHU216HW,2013-10-16 09:19:00,
2013-10-16 05:24:00,60.8,58.9,29.98,NW,315,0.0,0.0,93,0.00,,,0.00,WUHU216HW,2013-10-16 09:24:00,
2013-10-16 05:29:00,60.8,58.9,29.98,NW,315,0.0,0.0,93,0.00,,,0.00,WUHU216HW,2013-10-16 09:29:00,
2013-10-16 05:34:00,60.8,58.9,29.98,NW,315,0.0,0.0,93,0.00,,,0.00,WUHU216HW,2013-10-16 09:34:00,
2013-10-16 05:39:00,60.8,58.9,29.98,NW,315,0.0,0.0,93,0.00,,,0.00,WUHU216HW,2013-10-16 09:39:00,
2013-10-16 05:44:00,60.8,58.5,29.98,NW,315,0.0,0.0,92,0.00,,,0.00,WUHU216HW,2013-10-16 09:44:00,
2013-10-16 05:49:00,60.7,58.7,29.98,NW,315,0.0,0.0,93,0.00,,,0.00,WUHU216HW,2013-10-16 09:49:00,
2013-10-16 05:54:00,60.7,58.7,29.98,NW,315,0.0,0.0,93,0.00,,,0.00,WUHU216HW,2013-10-16 09:54:00,
2013-10-16 05:59:00,60.7,58.7,29.98,NW,315,0.0,0.0,93,0.00,,,0.00,WUHU216HW,2013-10-16 09:59:00,
2013-10-16 06:04:00,60.7,58.7,29.98,NNW,338,0.0,0.7,93,0.00,,,0.00,WUHU216HW,2013-10-16 10:04:00,
2013-10-16 06:09:00,60.7,58.7,29.98,NNW,338,0.0,0.7,93,0.00,,,0.00,WUHU216HW,2013-10-16 10:09:00,
2013-10-16 06:14:00,60.7,58.7,29.98,NNW,338,0.0,0.0,93,0.00,,,0.00,WUHU216HW,2013-10-16 10:14:00,
2013-10-16 06:19:00,60.7,58.7,29.98,NNW,338,0.7,1.1,93,0.00,,,0.00,WUHU216HW,2013-10-16 10:19:00,
2013-10-16 06:24:00,60.7,58.7,29.98,NNW,338,0.4,1.1,93,0.00,,,0.00,WUHU216HW,2013-10-16 10:24:00,
2013-10-16 06:29:00,60.7,58.7,29.98,NNW,338,0.7,0.9,93,0.00,,,0.00,WUHU216HW,2013-10-16 10:29:00,
2013-10-16 06:34:00,60.7,58.7,29.98,NNW,338,0.4,1.1,93,0.00,,,0.00,WUHU216HW,2013-10-16 10:34:00,
2013-10-16 06:39:00,60.7,58.7,29.99,NNW,338,0.9,1.1,93,0.00,,,0.00,WUHU216HW,2013-10-16 10:39:00,
2013-10-16 06:44:00,60.5,58.5,29.99,NNW,338,0.7,1.1,93,0.00,,,0.00,WUHU216HW,2013-10-16 10:44:00,
2013-10-16 06:49:00,60.5,58.5,29.98,North,0,0.4,1.1,93,0.00,,,0.00,WUHU216HW,2013-10-16 10:49:00,
2013-10-16 06:54:00,60.5,58.5,29.98,North,0,0.7,1.1,93,0.00,,,0.00,WUHU216HW,2013-10-16 10:54:00,
2013-10-16 06:59:00,60.5,58.5,29.99,North,0,0.0,1.1,93,0.00,,,0.00,WUHU216HW,2013-10-16 10:59:00,
2013-10-16 07:04:00,60.7,58.7,29.99,North,0,1.1,1.1,93,0.00,,,0.00,WUHU216HW,2013-10-16 11:04:00,
2013-10-16 07:09:00,60.7,58.7,29.99,North,0,0.7,1.3,93,0.00,,,0.00,WUHU216HW,2013-10-16 11:09:00,
2013-10-16 07:14:00,60.7,58.7,29.99,North,0,1.1,1.3,93,0.00,,,0.00,WUHU216HW,2013-10-16 11:14:00,
2013-10-16 07:19:00,60.7,58.7,29.99,North,0,0.4,1.1,93,0.00,,,0.00,WUHU216HW,2013-10-16 11:19:00,
2013-10-16 07:24:00,60.7,58.7,29.99,North,0,0.0,1.1,93,0.00,,,0.00,WUHU216HW,2013-10-16 11:24:00,
2013-10-16 07:29:00,60.7,58.7,29.99,North,0,0.2,1.1,93,0.00,,,0.00,WUHU216HW,2013-10-16 11:29:00,
2013-10-16 07:34:00,60.8,58.9,29.99,North,0,0.4,1.1,93,0.00,,,0.00,WUHU216HW,2013-10-16 11:34:00,
2013-10-16 07:39:00,60.8,58.9,30.00,North,0,0.7,1.1,93,0.00,,,0.00,WUHU216HW,2013-10-16 11:39:00,
2013-10-16 07:44:00,61.0,59.1,30.00,North,0,0.2,1.1,93,0.00,,,0.00,WUHU216HW,2013-10-16 11:44:00,
2013-10-16 07:49:00,61.0,59.1,30.00,North,0,0.0,0.4,93,0.00,,,0.00,WUHU216HW,2013-10-16 11:49:00,
2013-10-16 07:54:00,61.0,59.1,30.00,North,0,0.7,0.9,93,0.00,,,0.00,WUHU216HW,2013-10-16 11:54:00,
2013-10-16 07:59:00,61.2,59.2,30.00,North,0,1.1,1.1,93,0.00,,,0.00,WUHU216HW,2013-10-16 11:59:00,
2013-10-16 08:04:00,61.4,59.4,30.00,North,0,0.9,1.1,93,0.00,,,0.00,WUHU216HW,2013-10-16 12:04:00,
2013-10-16 08:09:00,61.4,59.4,30.00,North,0,0.7,1.3,93,0.00,,,0.00,WUHU216HW,2013-10-16 12:09:00,
2013-10-16 08:14:00,61.6,59.6,30.00,NNE,23,1.1,1.6,93,0.00,,,0.00,WUHU216HW,2013-10-16 12:14:00,
2013-10-16 08:19:00,61.9,60.0,30.00,North,0,0.4,1.8,93,0.00,,,0.00,WUHU216HW,2013-10-16 12:19:00,
2013-10-16 08:24:00,62.1,60.1,30.01,North,0,0.7,2.2,93,0.00,,,0.00,WUHU216HW,2013-10-16 12:24:00,
2013-10-16 08:29:00,62.5,60.5,30.01,North,0,1.1,2.2,93,0.00,,,0.00,WUHU216HW,2013-10-16 12:29:00,
2013-10-16 08:34:00,62.6,60.7,30.01,NE,45,2.0,2.0,93,0.00,,,0.00,WUHU216HW,2013-10-16 12:34:00,
2013-10-16 08:39:00,62.8,60.9,30.01,NNE,23,1.3,2.0,93,0.00,,,0.00,WUHU216HW,2013-10-16 12:39:00,
2013-10-16 08:44:00,63.2,61.2,30.01,NNE,23,0.0,1.3,93,0.00,,,0.00,WUHU216HW,2013-10-16 12:44:00,
2013-10-16 08:49:00,63.9,61.9,30.01,NNE,23,0.0,0.9,93,0.00,,,0.00,WUHU216HW,2013-10-16 12:49:00,
2013-10-16 08:54:00,64.8,62.5,30.01,NE,45,1.1,1.8,92,0.00,,,0.00,WUHU216HW,2013-10-16 12:54:00,
2013-10-16 08:59:00,65.3,62.6,30.01,NE,45,1.1,2.7,91,0.00,,,0.00,WUHU216HW,2013-10-16 12:59:00,
2013-10-16 09:04:00,65.5,62.6,30.01,NE,45,0.9,2.7,90,0.00,,,0.00,WUHU216HW,2013-10-16 13:04:00,
2013-10-16 09:09:00,65.7,62.7,30.01,NE,45,0.7,1.8,90,0.00,,,0.00,WUHU216HW,2013-10-16 13:09:00,
2013-10-16 09:14:00,65.7,63.0,30.01,NE,45,2.5,2.5,91,0.00,,,0.00,WUHU216HW,2013-10-16 13:14:00,
2013-10-16 09:19:00,65.9,63.2,30.01,NNE,23,0.4,2.5,91,0.00,,,0.00,WUHU216HW,2013-10-16 13:19:00,
2013-10-16 09:24:00,66.2,63.5,30.01,North,0,0.4,2.5,91,0.00,,,0.00,WUHU216HW,2013-10-16 13:24:00,
2013-10-16 09:29:00,67.3,64.3,30.01,NE,45,1.8,1.8,90,0.00,,,0.00,WUHU216HW,2013-10-16 13:29:00,
2013-10-16 09:34:00,67.7,64.3,30.01,NE,45,0.4,2.7,89,0.00,,,0.00,WUHU216HW,2013-10-16 13:34:00,
2013-10-16 09:39:00,67.9,64.2,30.01,NE,45,0.7,2.7,88,0.00,,,0.00,WUHU216HW,2013-10-16 13:39:00,
2013-10-16 09:44:00,68.0,64.4,30.02,NNE,23,1.1,2.5,88,0.00,,,0.00,WUHU216HW,2013-10-16 13:44:00,
2013-10-16 09:49:00,68.2,64.5,30.02,NNE,23,1.6,2.9,88,0.00,,,0.00,WUHU216HW,2013-10-16 13:49:00,
2013-10-16 09:54:00,68.6,64.9,30.02,North,0,1.8,2.9,88,0.00,,,0.00,WUHU216HW,2013-10-16 13:54:00,
2013-10-16 09:59:00,70.9,66.9,30.02,ENE,68,2.0,2.2,87,0.00,,,0.00,WUHU216HW,2013-10-16 13:59:00,
2013-10-16 10:04:00,72.9,67.8,30.02,ENE,68,0.7,2.0,84,0.00,,,0.00,WUHU216HW,2013-10-16 14:04:00,
2013-10-16 10:09:00,73.6,68.1,30.02,North,0,1.3,1.6,83,0.00,,,0.00,WUHU216HW,2013-10-16 14:09:00,
2013-10-16 10:14:00,74.5,68.8,30.02,NE,45,1.1,1.6,82,0.00,,,0.00,WUHU216HW,2013-10-16 14:14:00,
2013-10-16 10:19:00,75.1,69.0,30.02,ENE,68,1.6,3.6,81,0.00,,,0.00,WUHU216HW,2013-10-16 14:19:00,
2013-10-16 10:24:00,74.9,68.1,30.02,ENE,68,1.1,3.6,79,0.00,,,0.00,WUHU216HW,2013-10-16 14:24:00,
2013-10-16 10:29:00,74.7,67.9,30.02,NE,45,1.6,2.5,79,0.00,,,0.00,WUHU216HW,2013-10-16 14:29:00,
2013-10-16 10:34:00,74.2,66.9,30.02,NE,45,2.2,2.2,78,0.00,,,0.00,WUHU216HW,2013-10-16 14:34:00,
2013-10-16 10:39:00,74.0,67.2,30.01,SSE,158,1.8,2.2,79,0.00,,,0.00,WUHU216HW,2013-10-16 14:39:00,
2013-10-16 10:44:00,75.8,68.9,30.01,ENE,68,2.5,2.5,79,0.00,,,0.00,WUHU216HW,2013-10-16 14:44:00,
2013-10-16 10:49:00,78.5,71.0,30.01,NE,45,0.4,2.5,78,0.00,,,0.00,WUHU216HW,2013-10-16 14:49:00,
2013-10-16 10:54:00,81.2,71.3,30.01,ENE,68,1.1,2.5,72,0.00,,,0.00,WUHU216HW,2013-10-16 14:54:00,
2013-10-16 10:59:00,82.1,72.2,30.01,NE,45,1.3,2.5,72,0.00,,,0.00,WUHU216HW,2013-10-16 14:59:00,
2013-10-16 11:04:00,83.5,72.7,30.01,East,90,0.9,2.5,70,0.00,,,0.00,WUHU216HW,2013-10-16 15:04:00,
2013-10-16 11:09:00,85.3,73.2,30.01,South,180,1.6,2.5,67,0.00,,,0.00,WUHU216HW,2013-10-16 15:09:00,
2013-10-16 11:14:00,85.3,70.8,30.00,South,180,1.1,2.5,62,0.00,,,0.00,WUHU216HW,2013-10-16 15:14:00,
2013-10-16 11:19:00,85.3,71.7,30.00,ENE,68,2.7,2.7,64,0.00,,,0.00,WUHU216HW,2013-10-16 15:19:00,
2013-10-16 11:24:00,85.9,71.8,30.00,ENE,68,1.8,3.6,63,0.00,,,0.00,WUHU216HW,2013-10-16 15:24:00,
2013-10-16 11:29:00,87.5,73.4,30.00,South,180,1.1,3.6,63,0.00,,,0.00,WUHU216HW,2013-10-16 15:29:00,
2013-10-16 11:34:00,88.9,73.4,30.00,ENE,68,0.2,3.6,60,0.00,,,0.00,WUHU216HW,2013-10-16 15:34:00,
2013-10-16 11:39:00,90.0,73.3,30.01,North,0,2.5,3.6,58,0.00,,,0.00,WUHU216HW,2013-10-16 15:39:00,
2013-10-16 11:44:00,90.9,73.0,30.01,North,0,0.9,2.5,56,0.00,,,0.00,WUHU216HW,2013-10-16 15:44:00,
2013-10-16 11:49:00,90.7,72.8,30.01,SSE,158,0.9,2.2,56,0.00,,,0.00,WUHU216HW,2013-10-16 15:49:00,
2013-10-16 11:54:00,91.8,73.3,30.00,NNE,23,0.2,2.2,55,0.00,,,0.00,WUHU216HW,2013-10-16 15:54:00,
2013-10-16 11:59:00,92.2,72.5,30.00,NE,45,3.4,3.4,53,0.00,,,0.00,WUHU216HW,2013-10-16 15:59:00,
2013-10-16 12:04:00,92.2,73.1,30.00,WNW,293,0.4,3.4,54,0.00,,,0.00,WUHU216HW,2013-10-16 16:04:00,
2013-10-16 12:09:00,91.6,70.9,30.00,WSW,248,2.2,2.9,51,0.00,,,0.00,WUHU216HW,2013-10-16 16:09:00,
2013-10-16 12:14:00,90.4,69.8,30.00,ENE,68,1.1,2.9,51,0.00,,,0.00,WUHU216HW,2013-10-16 16:14:00,
2013-10-16 12:19:00,89.3,68.2,30.00,ENE,68,1.8,2.9,50,0.00,,,0.00,WUHU216HW,2013-10-16 16:19:00,
2013-10-16 12:24:00,89.3,70.4,30.00,ENE,68,1.8,2.2,54,0.00,,,0.00,WUHU216HW,2013-10-16 16:24:00,
2013-10-16 12:29:00,90.4,71.4,30.00,NNW,338,0.2,2.0,54,0.00,,,0.00,WUHU216HW,2013-10-16 16:29:00,
2013-10-16 12:34:00,89.6,69.1,30.00,NW,315,0.7,2.9,51,0.00,,,0.00,WUHU216HW,2013-10-16 16:34:00,
2013-10-16 12:39:00,89.6,71.3,30.00,NNE,23,1.1,2.9,55,0.00,,,0.00,WUHU216HW,2013-10-16 16:39:00,
2013-10-16 12:44:00,90.0,71.1,30.00,ENE,68,1.6,2.2,54,0.00,,,0.00,WUHU216HW,2013-10-16 16:44:00,
2013-10-16 12:49:00,90.0,70.6,29.99,SSW,203,1.3,2.5,53,0.00,,,0.00,WUHU216HW,2013-10-16 16:49:00,
2013-10-16 12:54:00,89.5,70.0,29.99,East,90,2.2,2.9,53,0.00,,,0.00,WUHU216HW,2013-10-16 16:54:00,
2013-10-16 12:59:00,88.7,69.4,29.99,NE,45,1.3,2.9,53,0.00,,,0.00,WUHU216HW,2013-10-16 16:59:00,
2013-10-16 13:05:00,88.2,69.5,29.98,South,180,0.7,2.5,54,0.00,,,0.00,WUHU216HW,2013-10-16 17:05:00,
2013-10-16 13:10:00,87.8,69.1,29.98,East,90,1.8,2.2,54,0.00,,,0.00,WUHU216HW,2013-10-16 17:10:00,
2013-10-16 13:15:00,87.3,69.1,29.98,North,0,2.5,3.4,55,0.00,,,0.00,WUHU216HW,2013-10-16 17:15:00,
2013-10-16 13:20:00,87.1,69.5,29.98,NE,45,0.0,3.4,56,0.00,,,0.00,WUHU216HW,2013-10-16 17:20:00,
2013-10-16 13:25:00,87.3,69.7,29.98,North,0,1.8,2.9,56,0.00,,,0.00,WUHU216HW,2013-10-16 17:25:00,
2013-10-16 13:30:00,87.3,69.1,29.98,NE,45,3.4,3.4,55,0.00,,,0.00,WUHU216HW,2013-10-16 17:30:00,
2013-10-16 13:35:00,87.1,68.9,29.98,NE,45,2.9,3.6,55,0.00,,,0.00,WUHU216HW,2013-10-16 17:35:00,
2013-10-16 13:40:00,86.8,68.1,29.97,ENE,68,2.0,3.6,54,0.00,,,0.00,WUHU216HW,2013-10-16 17:40:00,
2013-10-16 13:45:00,85.7,67.2,29.97,SSE,158,1.1,2.5,54,0.00,,,0.00,WUHU216HW,2013-10-16 17:45:00,
2013-10-16 13:50:00,85.3,67.3,29.97,WSW,248,1.1,1.8,55,0.00,,,0.00,WUHU216HW,2013-10-16 17:50:00,
2013-10-16 13:55:00,85.0,67.5,29.96,South,180,1.8,2.5,56,0.00,,,0.00,WUHU216HW,2013-10-16 17:55:00,
2013-10-16 14:00:00,85.0,67.5,29.96,NE,45,3.4,4.5,56,0.00,,,0.00,WUHU216HW,2013-10-16 18:00:00,
2013-10-16 14:05:00,84.8,67.9,29.96,NNW,338,0.4,4.5,57,0.00,,,0.00,WUHU216HW,2013-10-16 18:05:00,
2013-10-16 14:10:00,85.1,67.7,29.96,ENE,68,1.8,3.4,56,0.00,,,0.00,WUHU216HW,2013-10-16 18:10:00,
2013-10-16 14:15:00,85.3,67.9,29.96,SW,225,2.5,3.4,56,0.00,,,0.00,WUHU216HW,2013-10-16 18:15:00,
2013-10-16 14:20:00,85.7,68.7,29.95,SSE,158,0.4,2.7,57,0.00,,,0.00,WUHU216HW,2013-10-16 18:20:00,
2013-10-16 14:25:00,85.7,68.1,29.95,NNE,23,0.4,1.8,56,0.00,,,0.00,WUHU216HW,2013-10-16 18:25:00,
2013-10-16 14:30:00,85.3,67.9,29.95,NE,45,1.8,2.5,56,0.00,,,0.00,WUHU216HW,2013-10-16 18:30:00,
2013-10-16 14:35:00,85.5,68.0,29.95,ENE,68,1.8,2.5,56,0.00,,,0.00,WUHU216HW,2013-10-16 18:35:00,
2013-10-16 14:40:00,85.7,68.1,29.95,NNE,23,0.4,2.5,56,0.00,,,0.00,WUHU216HW,2013-10-16 18:40:00,
2013-10-16 14:45:00,86.0,68.0,29.95,South,180,1.6,2.5,55,0.00,,,0.00,WUHU216HW,2013-10-16 18:45:00,
2013-10-16 14:50:00,85.5,67.5,29.95,North,0,2.5,2.9,55,0.00,,,0.00,WUHU216HW,2013-10-16 18:50:00,
2013-10-16 14:55:00,85.1,67.7,29.95,NNE,23,1.1,2.9,56,0.00,,,0.00,WUHU216HW,2013-10-16 18:55:00,
2013-10-16 15:00:00,85.1,67.7,29.94,North,0,0.7,2.2,56,0.00,,,0.00,WUHU216HW,2013-10-16 19:00:00,
2013-10-16 15:05:00,85.3,67.9,29.94,NNW,338,2.2,2.2,56,0.00,,,0.00,WUHU216HW,2013-10-16 19:05:00,
2013-10-16 15:10:00,85.0,67.5,29.94,WSW,248,2.0,4.0,56,0.00,,,0.00,WUHU216HW,2013-10-16 19:10:00,
2013-10-16 15:15:00,84.8,67.3,29.94,North,0,2.0,4.0,56,0.00,,,0.00,WUHU216HW,2013-10-16 19:15:00,
2013-10-16 15:20:00,84.6,67.1,29.94,NNE,23,0.4,2.2,56,0.00,,,0.00,WUHU216HW,2013-10-16 19:20:00,
2013-10-16 15:25:00,84.8,67.9,29.94,North,0,0.4,1.8,57,0.00,,,0.00,WUHU216HW,2013-10-16 19:25:00,
2013-10-16 15:30:00,84.8,67.3,29.94,NNE,23,0.7,1.3,56,0.00,,,0.00,WUHU216HW,2013-10-16 19:30:00,
2013-10-16 15:35:00,84.6,66.7,29.94,NNE,23,0.4,1.3,55,0.00,,,0.00,WUHU216HW,2013-10-16 19:35:00,
2013-10-16 15:40:00,84.4,67.1,29.94,North,0,1.6,2.0,56,0.00,,,0.00,WUHU216HW,2013-10-16 19:40:00,
2013-10-16 15:45:00,84.4,67.1,29.94,NE,45,2.2,2.2,56,0.00,,,0.00,WUHU216HW,2013-10-16 19:45:00,
2013-10-16 15:50:00,84.2,66.9,29.94,NE,45,0.9,2.7,56,0.00,,,0.00,WUHU216HW,2013-10-16 19:50:00,
2013-10-16 15:55:00,84.2,67.4,29.94,NNE,23,1.1,2.7,57,0.00,,,0.00,WUHU216HW,2013-10-16 19:55:00,
2013-10-16 16:00:00,84.2,67.4,29.94,North,0,0.0,1.8,57,0.00,,,0.00,WUHU216HW,2013-10-16 20:00:00,
2013-10-16 16:05:00,83.9,67.1,29.94,NNW,338,0.0,1.3,57,0.00,,,0.00,WUHU216HW,2013-10-16 20:05:00,
2013-10-16 16:10:00,83.9,67.1,29.94,ENE,68,1.6,1.6,57,0.00,,,0.00,WUHU216HW,2013-10-16 20:10:00,
2013-10-16 16:15:00,83.5,66.7,29.94,ENE,68,0.7,1.6,57,0.00,,,0.00,WUHU216HW,2013-10-16 20:15:00,
2013-10-16 16:20:00,83.0,65.6,29.94,NNE,23,1.1,1.3,56,0.00,,,0.00,WUHU216HW,2013-10-16 20:20:00,
2013-10-16 16:25:00,83.0,66.2,29.93,NNE,23,1.1,1.3,57,0.00,,,0.00,WUHU216HW,2013-10-16 20:25:00,
2013-10-16 16:30:00,82.8,66.4,29.93,North,0,0.4,1.1,58,0.00,,,0.00,WUHU216HW,2013-10-16 20:30:00,
2013-10-16 16:35:00,82.8,66.4,29.93,WNW,293,0.0,1.1,58,0.00,,,0.00,WUHU216HW,2013-10-16 20:35:00,
2013-10-16 16:40:00,82.8,67.0,29.93,NW,315,0.4,0.7,59,0.00,,,0.00,WUHU216HW,2013-10-16 20:40:00,
2013-10-16 16:45:00,82.6,66.2,29.93,ENE,68,0.7,1.3,58,0.00,,,0.00,WUHU216HW,2013-10-16 20:45:00,
2013-10-16 16:50:00,82.6,66.2,29.93,NE,45,1.1,1.3,58,0.00,,,0.00,WUHU216HW,2013-10-16 20:50:00,
2013-10-16 16:55:00,82.6,65.8,29.93,NE,45,0.9,1.3,57,0.00,,,0.00,WUHU216HW,2013-10-16 20:55:00,
2013-10-16 17:00:00,82.3,65.4,29.93,NE,45,0.4,1.8,57,0.00,,,0.00,WUHU216HW,2013-10-16 21:00:00,
2013-10-16 17:05:00,82.3,66.4,29.93,NE,45,0.0,1.8,59,0.00,,,0.00,WUHU216HW,2013-10-16 21:05:00,
2013-10-16 17:10:00,81.9,66.2,29.93,NE,45,0.0,0.4,59,0.00,,,0.00,WUHU216HW,2013-10-16 21:10:00,
2013-10-16 17:15:00,81.7,66.5,29.94,NE,45,0.7,1.1,60,0.00,,,0.00,WUHU216HW,2013-10-16 21:15:00,
2013-10-16 17:20:00,81.5,66.3,29.94,NE,45,0.0,1.1,60,0.00,,,0.00,WUHU216HW,2013-10-16 21:20:00,
2013-10-16 17:25:00,81.5,66.8,29.94,NE,45,0.0,0.0,61,0.00,,,0.00,WUHU216HW,2013-10-16 21:25:00,
2013-10-16 17:30:00,81.4,66.6,29.94,NE,45,0.0,0.0,61,0.00,,,0.00,WUHU216HW,2013-10-16 21:30:00,
2013-10-16 17:35:00,81.4,67.1,29.94,NE,45,0.0,0.0,62,0.00,,,0.00,WUHU216HW,2013-10-16 21:35:00,
2013-10-16 17:40:00,81.2,66.9,29.94,NE,45,0.0,0.0,62,0.00,,,0.00,WUHU216HW,2013-10-16 21:40:00,
2013-10-16 17:45:00,81.0,66.8,29.94,NE,45,0.0,0.0,62,0.00,,,0.00,WUHU216HW,2013-10-16 21:45:00,
2013-10-16 17:50:00,80.8,67.1,29.94,NE,45,0.0,0.0,63,0.00,,,0.00,WUHU216HW,2013-10-16 21:50:00,
2013-10-16 17:55:00,80.6,67.3,29.94,NE,45,0.0,0.0,64,0.00,,,0.00,WUHU216HW,2013-10-16 21:55:00,
2013-10-16 18:00:00,80.3,67.4,29.94,NE,45,0.0,0.0,65,0.00,,,0.00,WUHU216HW,2013-10-16 22:00:00,
2013-10-16 18:05:00,80.1,67.7,29.94,NE,45,0.0,0.0,66,0.00,,,0.00,WUHU216HW,2013-10-16 22:05:00,
2013-10-16 18:10:00,79.9,67.5,29.94,NE,45,0.0,0.0,66,0.00,,,0.00,WUHU216HW,2013-10-16 22:10:00,
2013-10-16 18:15:00,79.9,67.5,29.94,NE,45,0.0,0.0,66,0.00,,,0.00,WUHU216HW,2013-10-16 22:15:00,
2013-10-16 18:20:00,79.6,67.1,29.94,NE,45,0.0,0.0,66,0.00,,,0.00,WUHU216HW,2013-10-16 22:20:00,
2013-10-16 18:25:00,79.4,67.4,29.94,NE,45,0.0,0.0,67,0.00,,,0.00,WUHU216HW,2013-10-16 22:25:00,
2013-10-16 18:30:00,79.2,67.7,29.94,NE,45,0.0,0.0,68,0.00,,,0.00,WUHU216HW,2013-10-16 22:30:00,
2013-10-16 18:35:00,78.8,67.3,29.94,NE,45,0.0,0.0,68,0.00,,,0.00,WUHU216HW,2013-10-16 22:35:00,
2013-10-16 18:40:00,78.5,67.5,29.94,NE,45,0.0,0.0,69,0.00,,,0.00,WUHU216HW,2013-10-16 22:40:00,
2013-10-16 18:45:00,78.3,67.3,29.94,NE,45,0.0,0.0,69,0.00,,,0.00,WUHU216HW,2013-10-16 22:45:00,
2013-10-16 18:50:00,77.9,67.4,29.94,NE,45,0.0,0.0,70,0.00,,,0.00,WUHU216HW,2013-10-16 22:50:00,
2013-10-16 18:55:00,77.6,67.5,29.94,NE,45,0.0,0.0,71,0.00,,,0.00,WUHU216HW,2013-10-16 22:55:00,
2013-10-16 19:00:00,77.0,67.0,29.94,NE,45,0.0,0.0,71,0.00,,,0.00,WUHU216HW,2013-10-16 23:00:00,
2013-10-16 19:05:00,76.5,66.9,29.95,ENE,68,1.8,1.8,72,0.00,,,0.00,WUHU216HW,2013-10-16 23:05:00,
2013-10-16 19:10:00,76.0,66.7,29.95,East,90,0.2,1.8,73,0.00,,,0.00,WUHU216HW,2013-10-16 23:10:00,
2013-10-16 19:15:00,76.0,66.7,29.95,ENE,68,0.0,1.1,73,0.00,,,0.00,WUHU216HW,2013-10-16 23:15:00,
2013-10-16 19:20:00,76.0,67.1,29.95,ENE,68,0.0,1.1,74,0.00,,,0.00,WUHU216HW,2013-10-16 23:20:00,
2013-10-16 19:25:00,75.6,66.7,29.95,East,90,0.9,0.9,74,0.00,,,0.00,WUHU216HW,2013-10-16 23:25:00,
2013-10-16 19:30:00,75.4,67.0,29.95,SSE,158,0.2,1.1,75,0.00,,,0.00,WUHU216HW,2013-10-16 23:30:00,
2013-10-16 19:35:00,75.1,66.6,29.95,ESE,113,0.0,1.1,75,0.00,,,0.00,WUHU216HW,2013-10-16 23:35:00,
2013-10-16 19:40:00,74.7,66.7,29.95,SSE,158,0.7,0.7,76,0.00,,,0.00,WUHU216HW,2013-10-16 23:40:00,
2013-10-16 19:45:00,74.5,66.5,29.95,SSE,158,0.0,0.7,76,0.00,,,0.00,WUHU216HW,2013-10-16 23:45:00,
2013-10-16 19:50:00,74.2,66.5,29.95,SE,135,0.4,0.4,77,0.00,,,0.00,WUHU216HW,2013-10-16 23:50:00,
2013-10-16 19:55:00,74.0,66.3,29.96,ESE,113,0.0,0.4,77,0.00,,,0.00,WUHU216HW,2013-10-16 23:55:00,
2013-10-16 20:00:00,73.8,66.6,29.96,SE,135,0.7,1.1,78,0.00,,,0.00,WUHU216HW,2013-10-17 00:00:00,
2013-10-16 20:05:00,73.3,66.4,29.96,SSE,158,1.8,1.8,79,0.00,,,0.00,WUHU216HW,2013-10-17 00:05:00,
2013-10-16 20:10:00,72.9,66.4,29.96,SSE,158,0.4,1.8,80,0.00,,,0.00,WUHU216HW,2013-10-17 00:10:00,
2013-10-16 20:15:00,72.7,66.2,29.96,SSE,158,0.4,1.1,80,0.00,,,0.00,WUHU216HW,2013-10-17 00:15:00,
2013-10-16 20:20:00,72.4,65.5,29.97,SSE,158,0.4,0.9,79,0.00,,,0.00,WUHU216HW,2013-10-17 00:20:00,
2013-10-16 20:25:00,72.4,65.9,29.97,SSE,158,0.2,0.4,80,0.00,,,0.00,WUHU216HW,2013-10-17 00:25:00,
2013-10-16 20:30:00,72.2,65.7,29.97,SSE,158,0.4,0.4,80,0.00,,,0.00,WUHU216HW,2013-10-17 00:30:00,
2013-10-16 20:35:00,72.0,65.5,29.97,SSE,158,0.0,0.9,80,0.00,,,0.00,WUHU216HW,2013-10-17 00:35:00,
2013-10-16 20:40:00,72.0,65.5,29.98,SSE,158,0.0,0.9,80,0.00,,,0.00,WUHU216HW,2013-10-17 00:40:00,
2013-10-16 20:45:00,72.0,65.5,29.98,SSE,158,0.0,0.0,80,0.00,,,0.00,WUHU216HW,2013-10-17 00:45:00,
2013-10-16 20:50:00,72.0,65.5,29.98,SSE,158,0.0,0.0,80,0.00,,,0.00,WUHU216HW,2013-10-17 00:50:00,
2013-10-16 20:55:00,71.6,65.2,29.98,ENE,68,0.0,0.0,80,0.00,,,0.00,WUHU216HW,2013-10-17 00:55:00,
2013-10-16 21:00:00,71.5,65.0,29.98,ENE,68,0.0,0.0,80,0.00,,,0.00,WUHU216HW,2013-10-17 01:00:00,
2013-10-16 21:05:00,71.3,64.8,29.98,ENE,68,0.0,0.0,80,0.00,,,0.00,WUHU216HW,2013-10-17 01:05:00,
2013-10-16 21:10:00,71.3,64.8,29.98,ENE,68,0.0,0.0,80,0.00,,,0.00,WUHU216HW,2013-10-17 01:10:00,
2013-10-16 21:15:00,71.1,65.0,29.98,ENE,68,0.0,0.0,81,0.00,,,0.00,WUHU216HW,2013-10-17 01:15:00,
2013-10-16 21:20:00,70.9,64.8,29.98,ENE,68,0.0,0.0,81,0.00,,,0.00,WUHU216HW,2013-10-17 01:20:00,
2013-10-16 21:25:00,70.7,64.6,29.98,ENE,68,0.0,0.0,81,0.00,,,0.00,WUHU216HW,2013-10-17 01:25:00,
2013-10-16 21:30:00,70.6,64.5,29.98,ENE,68,0.0,0.0,81,0.00,,,0.00,WUHU216HW,2013-10-17 01:30:00,
2013-10-16 21:35:00,70.2,64.5,29.98,ENE,68,0.0,0.4,82,0.00,,,0.00,WUHU216HW,2013-10-17 01:35:00,
2013-10-16 21:40:00,70.0,64.3,29.99,ENE,68,0.0,0.4,82,0.00,,,0.00,WUHU216HW,2013-10-17 01:40:00,
2013-10-16 21:45:00,70.0,64.3,29.99,ENE,68,0.0,0.0,82,0.00,,,0.00,WUHU216HW,2013-10-17 01:45:00,
2013-10-16 21:50:00,69.8,64.1,29.99,ENE,68,0.0,0.0,82,0.00,,,0.00,WUHU216HW,2013-10-17 01:50:00,
2013-10-16 21:55:00,69.7,64.3,29.99,ENE,68,0.0,0.0,83,0.00,,,0.00,WUHU216HW,2013-10-17 01:55:00,
2013-10-16 22:00:00,69.5,64.1,29.99,ENE,68,1.1,1.1,83,0.00,,,0.00,WUHU216HW,2013-10-17 02:00:00,
2013-10-16 22:05:00,69.3,63.9,29.99,ENE,68,0.0,1.1,83,0.00,,,0.00,WUHU216HW,2013-10-17 02:05:00,
2013-10-16 22:10:00,69.1,64.1,29.99,ENE,68,0.2,0.7,84,0.00,,,0.00,WUHU216HW,2013-10-17 02:10:00,
2013-10-16 22:15:00,69.1,64.1,29.99,ENE,68,0.0,0.4,84,0.00,,,0.00,WUHU216HW,2013-10-17 02:15:00,
2013-10-16 22:20:00,68.9,63.9,29.99,ENE,68,0.0,0.4,84,0.00,,,0.00,WUHU216HW,2013-10-17 02:20:00,
2013-10-16 22:25:00,68.8,63.7,29.99,ENE,68,0.0,0.4,84,0.00,,,0.00,WUHU216HW,2013-10-17 02:25:00,
2013-10-16 22:30:00,68.8,63.7,30.00,ENE,68,0.0,0.0,84,0.00,,,0.00,WUHU216HW,2013-10-17 02:30:00,
2013-10-16 22:35:00,68.6,63.5,30.00,ENE,68,0.0,0.0,84,0.00,,,0.00,WUHU216HW,2013-10-17 02:35:00,
2013-10-16 22:40:00,68.4,63.4,30.00,ENE,68,0.0,0.0,84,0.00,,,0.00,WUHU216HW,2013-10-17 02:40:00,
2013-10-16 22:45:00,68.4,63.7,30.00,ENE,68,0.0,0.0,85,0.00,,,0.00,WUHU216HW,2013-10-17 02:45:00,
2013-10-16 22:50:00,68.2,63.6,30.00,ENE,68,0.0,0.0,85,0.00,,,0.00,WUHU216HW,2013-10-17 02:50:00,
2013-10-16 22:55:00,68.2,63.6,29.99,ENE,68,0.0,0.0,85,0.00,,,0.00,WUHU216HW,2013-10-17 02:55:00,
2013-10-16 23:00:00,68.0,63.4,29.99,ENE,68,0.0,0.0,85,0.00,,,0.00,WUHU216HW,2013-10-17 03:00:00,
2013-10-16 23:05:00,68.0,63.4,29.99,ENE,68,0.0,0.0,85,0.00,,,0.00,WUHU216HW,2013-10-17 03:05:00,
2013-10-16 23:10:00,67.9,63.6,29.99,ENE,68,0.0,0.0,86,0.00,,,0.00,WUHU216HW,2013-10-17 03:10:00,
2013-10-16 23:15:00,67.7,63.4,29.99,ENE,68,0.0,0.0,86,0.00,,,0.00,WUHU216HW,2013-10-17 03:15:00,
2013-10-16 23:20:00,67.7,63.4,29.98,ENE,68,0.0,0.0,86,0.00,,,0.00,WUHU216HW,2013-10-17 03:20:00,
2013-10-16 23:25:00,67.5,63.2,29.98,ENE,68,0.0,0.0,86,0.00,,,0.00,WUHU216HW,2013-10-17 03:25:00,
2013-10-16 23:30:00,67.3,63.0,29.98,ENE,68,0.0,0.0,86,0.00,,,0.00,WUHU216HW,2013-10-17 03:30:00,
2013-10-16 23:35:00,67.3,63.0,29.98,ENE,68,0.0,0.0,86,0.00,,,0.00,WUHU216HW,2013-10-17 03:35:00,
2013-10-16 23:40:00,67.1,63.1,29.98,ENE,68,0.0,0.0,87,0.00,,,0.00,WUHU216HW,2013-10-17 03:40:00,
2013-10-16 23:45:00,67.0,62.9,29.98,ENE,68,0.0,0.0,87,0.00,,,0.00,WUHU216HW,2013-10-17 03:45:00,
2013-10-16 23:50:00,66.8,62.7,29.98,ENE,68,0.0,0.0,87,0.00,,,0.00,WUHU216HW,2013-10-17 03:50:00,
2013-10-16 23:55:00,66.6,62.6,29.98,ENE,68,0.0,0.0,87,0.00,,,0.00,WUHU216HW,2013-10-17 03:55:00,